This is the latest recevied weather packets stored in our database for station/object OE6PLD-13. If no packets are shown the sender has not sent any weather packets the latest 10 day(s).
| Time | Temp. | Humidity | Pressure | Rain* | Wind** | Luminosity | Snow |
|---|---|---|---|---|---|---|---|
| 1778167242 | 22.78° C | 53% | 1012.3 hPa | 0.76 mm | - | 252 W/m² | - |
| 1778167059 | 22.78° C | 52% | 1012.1 hPa | 0.76 mm | - | 272 W/m² | - |
| 1778166875 | 22.78° C | 52% | 1012.1 hPa | 0.76 mm | - | 281 W/m² | - |
| 1778166692 | 22.78° C | 52% | 1012 hPa | 0.76 mm | - | 284 W/m² | - |
| 1778166509 | 22.22° C | 52% | 1012.1 hPa | 0.76 mm | - | 274 W/m² | - |
| 1778166324 | 22.78° C | 51% | 1012.2 hPa | 0.76 mm | - | 251 W/m² | - |
| 1778166141 | 22.78° C | 50% | 1012.1 hPa | 0.76 mm | - | 264 W/m² | - |
| 1778165957 | 22.78° C | 49% | 1011.9 hPa | 0.76 mm | - | 78 W/m² | - |
| 1778165774 | 23.33° C | 50% | 1011.8 hPa | 0.76 mm | - | 323 W/m² | - |
| 1778165589 | 23.33° C | 50% | 1012 hPa | 0.76 mm | - | 335 W/m² | - |
| 1778165404 | 22.78° C | 50% | 1012 hPa | 0.76 mm | - | 344 W/m² | - |
| 1778165221 | 22.78° C | 52% | 1012.2 hPa | 0.76 mm | - | 197 W/m² | - |
| 1778165037 | 22.22° C | 52% | 1012.2 hPa | 0.76 mm | - | 398 W/m² | - |
| 1778164854 | 22.22° C | 52% | 1012.3 hPa | 0.76 mm | - | 170 W/m² | - |
| 1778164671 | 21.11° C | 53% | 1012.2 hPa | 0.76 mm | - | 462 W/m² | - |
| 1778164487 | 21.11° C | 54% | 1012.2 hPa | 0.76 mm | - | 178 W/m² | - |
| 1778164304 | 21.67° C | 52% | 1012 hPa | 0.76 mm | - | 131 W/m² | - |
| 1778164121 | 21.67° C | 52% | 1012.2 hPa | 0.76 mm | - | 133 W/m² | - |
| 1778163939 | 22.22° C | 52% | 1012.4 hPa | 0.76 mm | - | 233 W/m² | - |
| 1778163754 | 22.22° C | 51% | 1012.1 hPa | 0.76 mm | - | 400 W/m² | - |
| 1778163571 | 22.22° C | 52% | 1012.2 hPa | 0.76 mm | - | 183 W/m² | - |
| 1778163386 | 22.78° C | 51% | 1012.3 hPa | 0.76 mm | - | 218 W/m² | - |
| 1778163203 | 22.78° C | 49% | 1012.2 hPa | 0.76 mm | - | 322 W/m² | - |
| 1778163020 | 22.78° C | 51% | 1012.4 hPa | 0.76 mm | - | 516 W/m² | - |
| 1778162836 | 22.22° C | 53% | 1012.3 hPa | 0.76 mm | - | 526 W/m² | - |
* Rain latest hour (hover to see other rain measurements)
** Current wind speed in m/s (hover to see current wind gust speed)